[[{"header":{"parameterUnit":"m.s-1","parameterCategory":1,"la1":30.2992,"la2":30.254,"lo1":-89.0895,"lo2":-89.0443,"dy":0.0025,"dx":0.0025,"nx":19,"ny":19,"refTime":"2026-05-05T03:00:00:Z","depth":0,"parameterNumber":2,"parameterNumberName":"U-component_of_WINDS"},"data":[0,0,0,0.7135,0.7135,0.7097,0.7096,0.7052,0.7052,0,0,0,0,0,0,0,0,0,0,0,0.7152,0.7152,0.7135,0.7135,0.7097,0.7096,0.7052,0.7052,0,0,0,0,0,0,0,0,0,0,0,0.7152,0.7152,0.7152,0.7135,0.7097,0.7096,0.7052,0.7079,0,0,0,0,0,0,0,0,0,0,0.7115,0.7136,0.7152,0.7152,0.7134,0.7097,0.7096,0.708,0.7077,0.7072,0,0.7071,0,0.7061,0.7049,0.7049,0,0,0,0.7131,0.7138,0.7123,0.7152,0.7134,0.7097,0.7113,0.7078,0.7075,0.7068,0.707,0.7068,0.706,0.7049,0.7049,0.7035,0.7035,0,0,0.7133,0.7147,0.7126,0.7122,0.713,0.7114,0.7111,0.7076,0.7079,0.707,0.7067,0.7059,0.7049,0.7049,0.7035,0.7035,0,0,0,0.7141,0.7149,0.7135,0.7124,0.7116,0.7113,0.711,0.708,0.7074,0.7066,0.7059,0.7049,0.7048,0.7035,0.7035,0.7055,0,0,0,0.7143,0.7154,0.7136,0.7145,0.7117,0.7098,0.7115,0.7077,0.7072,0.7059,0.7049,0.7048,0.7035,0.7035,0.7054,0.7062,0,0,0,0.7152,0.7155,0.7152,0.7146,0.713,0.7099,0.7091,0.7075,0.7068,0.7049,0.7048,0.7034,0.7035,0.7054,0.7061,0.7062,0,0,0,0.7167,0.7171,0.7152,0.7153,0.713,0.7112,0.7091,0.7076,0.7063,0.7048,0.7035,0.7035,0.7053,0.706,0.7061,0.7065,0.7068,0,0,0.7181,0.7174,0.7173,0.7155,0.7144,0.7117,0.7107,0.7081,0.7065,0.7045,0.7045,0.7055,0.7061,0.7062,0.7082,0.7085,0,0,0,0.7182,0.7181,0.7175,0.7163,0.7143,0.7125,0.7099,0.7088,0.707,0.7059,0.7055,0.7058,0.7058,0.7059,0.7061,0.7059,0.7036,0.7036,0.7036,0.7222,0.7201,0.7198,0.7172,0.716,0.7131,0.7119,0.7099,0.7082,0.7081,0.7075,0.709,0.7092,0.7094,0.7092,0.7076,0.7076,0.7076,0.7076,0.7239,0.7234,0.7209,0.7197,0.7174,0.7163,0.7133,0.7121,0.7105,0.7094,0.7092,0.7081,0.7097,0.7094,0.7078,0.7077,0.7077,0.7077,0.7077,0.7262,0.7256,0.7243,0.7221,0.7206,0.7179,0.7165,0.7144,0.7125,0.7123,0.7113,0.7113,0.7109,0.712,0.712,0.712,0.712,0.712,0.712,0.7291,0.7276,0.7267,0.7244,0.7232,0.7213,0.7182,0.7169,0.7149,0.7135,0.7134,0.7116,0.7103,0.71,0.7121,0.7121,0.7121,0.7121,0.7121,0.7314,0.7305,0.7292,0.728,0.7249,0.7234,0.7207,0.7182,0.7168,0.7161,0.7142,0.7136,0.7127,0.7125,0.7122,0.7148,0.7148,0.7148,0.7148,0.7332,0.7326,0.7306,0.7288,0.7267,0.7241,0.7223,0.7198,0.717,0.7159,0.7152,0.7146,0.7145,0.7137,0.7135,0.7131,0.7159,0.7159,0.7159,0.7344,0.7334,0.7325,0.7298,0.7272,0.7249,0.7231,0.7208,0.7174,0.7158,0.7149,0.7149,0.714,0.7138,0.7123,0.712,0.7114,0,0]},{"header":{"parameterUnit":"m.s-1","parameterCategory":1,"la1":30.2992,"la2":30.254,"lo1":-89.0895,"lo2":-89.0443,"dy":0.0025,"dx":0.0025,"nx":19,"ny":19,"refTime":"2026-05-05T03:00:00:Z","depth":0,"parameterNumber":3,"parameterNumberName":"V-component_of_WINDS"},"data":[0,0,0,4.8456,4.8458,4.8551,4.8552,4.8681,4.8682,0,0,0,0,0,0,0,0,0,0,0,4.8438,4.8439,4.8456,4.8458,4.8551,4.8552,4.868,4.8682,0,0,0,0,0,0,0,0,0,0,0,4.8437,4.8439,4.844,4.8459,4.8551,4.8552,4.868,4.8606,0,0,0,0,0,0,0,0,0,0,4.8513,4.8507,4.8438,4.844,4.8459,4.8551,4.8552,4.8602,4.861,4.8644,0,4.8679,0,4.8683,4.8692,4.8692,0,0,0,4.8451,4.85,4.8516,4.8441,4.846,4.8551,4.8507,4.8606,4.8616,4.8655,4.8681,4.8685,4.8685,4.8692,4.8693,4.8914,4.8915,0,0,4.8446,4.8459,4.851,4.8523,4.8513,4.8504,4.851,4.8612,4.864,4.8681,4.8688,4.8687,4.8693,4.8694,4.8913,4.8914,0,0,0,4.8436,4.8456,4.847,4.8518,4.8534,4.8507,4.8514,4.8635,4.8639,4.8689,4.8688,4.8694,4.8696,4.8911,4.8913,4.8992,0,0,0,4.8433,4.845,4.8468,4.8477,4.8533,4.8587,4.8535,4.8632,4.8643,4.8688,4.8694,4.8697,4.891,4.8912,4.8987,4.9027,0,0,0,4.8428,4.845,4.8467,4.8478,4.8518,4.8585,4.8594,4.8634,4.8643,4.8692,4.8698,4.8909,4.8912,4.8982,4.9019,4.9086,0,0,0,4.8428,4.8539,4.8468,4.8591,4.8518,4.8635,4.8593,4.8679,4.8731,4.8695,4.891,4.8913,4.8981,4.9014,4.9081,4.9143,4.9171,0,0,4.8575,4.8557,4.8627,4.8567,4.87,4.8619,4.8762,4.8797,4.8789,4.8872,4.8877,4.8989,4.9019,4.9085,4.9328,4.935,0,0,0,4.8678,4.8729,4.8761,4.8811,4.884,4.8866,4.8878,4.889,4.8959,4.8836,4.9032,4.905,4.9088,4.9116,4.9135,4.9165,4.8928,4.8928,4.8927,4.8905,4.8888,4.9002,4.8995,4.9043,4.9052,4.9088,4.9105,4.9076,4.9122,4.9146,4.9296,4.933,4.9344,4.9375,4.918,4.918,4.918,4.9181,4.9116,4.9182,4.9137,4.9231,4.921,4.9288,4.9299,4.9274,4.9341,4.9278,4.931,4.9239,4.9369,4.9395,4.9186,4.9185,4.9185,4.9184,4.9184,4.926,4.9288,4.9301,4.9367,4.942,4.9408,4.9473,4.9454,4.9435,4.9468,4.9488,4.9486,4.9479,4.9479,4.948,4.948,4.9481,4.9481,4.9481,4.9403,4.9415,4.9473,4.9509,4.9535,4.9568,4.9574,4.9599,4.9621,4.9601,4.9601,4.9563,4.9387,4.934,4.9489,4.9488,4.9487,4.9486,4.9486,4.9618,4.9565,4.9655,4.9681,4.9719,4.977,4.9743,4.9794,4.9812,4.9843,4.9798,4.9672,4.9652,4.9636,4.9598,4.9804,4.9804,4.9804,4.9805,4.9737,4.9725,4.9809,4.9851,4.989,4.9873,4.997,4.9975,4.9971,4.9979,4.9947,4.9895,4.9881,4.9869,4.9848,4.9812,5.0068,5.0068,5.0069,4.9866,4.9856,4.9943,4.9939,4.9965,4.9988,5.0077,5.0124,5.0109,5.0079,4.9984,4.9973,4.9889,4.9864,4.983,4.9799,4.9731,0,0]}]]